Location: Sternwarte ZA, Rosenfeld-Brittheim
(48.2889°N, 8.6789°E)
Time: 20:28:27
(UTC+02:00)

ISS - Pass Details

Date: 18 July 2019
Orbit: 409 x 418 km, 51.6° (Epoch: 20 July)

Event Time Altitude Azimuth Distance (km) Brightness Sun altitude
Rises 23:01:42 0° 240° (WSW) 2,347 0.1 -13.1°
Reaches altitude 10° 23:03:47 10° 239° (WSW) 1,485 -0.9 -13.3°
Maximum altitude 23:07:07 73° 155° (SSE) 437 -3.9 -13.6°
Drops below altitude 10° 23:10:26 10° 70° (ENE) 1,486 -1.1 -13.9°
Sets 23:12:32 0° 68° (ENE) 2,349 -0.1 -14.1°
